User: anonymous   Login
Location: St. Louis
(38.6270°N, 90.1994°W)
Time: 23:56:00
(UTC-06:00)
Language:

NUDT-PHONESAT - Orbit

View from above orbital plane
View from above orbital plane
View from above satellite
View from above satellite

Ground track
Ground track

The orbit data is extracted from the following two-line orbital elements,

1 40900U 15049B   22027.86319738  .00010823  00000-0  38109-3 0  9998
2 40900  97.4117  45.7718 0012989  70.2880  52.5795 15.29410467353081
Epoch (UTC): 27 January 2022 20:43:00
Eccentricity: 0.0012989
inclination: 97.4117°
perigee height: 468 km
apogee height: 486 km
right ascension of ascending node: 45.7718°
argument of perigee: 70.2880°
revolutions per day: 15.29410467
mean anomaly at epoch: 52.5795°
orbit number at epoch: 35308

The dashed part of the orbit path shows where the satellite is in the earth's shadow,  

DLR